LOT12 EPKT-LICC

Flight info

Callsign LOT12
Flight time N/A
Altitude 36000
Route EPKT SID TUSIN DCT BILNA DCT BABNI DCT GYR DCT VEBAL L196 SPL DCT KATTI DCT DOGUS DCT EVINO DCT SOBRI DCT UXUTA STAR LICC
Aircraft B38M/M-V/N

Departure

Time 2026-05-06 18:50
Airport Katowice Wojciech Korfanty International Airport (EPKT)

Arrival

Time N/A
Airport Catania-Fontanarossa Airport (LICC)
Time Latitude Longitude Altitude Speed Heading
2026-05-06 18:15 50.47149 19.08045 984 ft 0 kts 180°
2026-05-06 18:38 50.47154 19.08045 984 ft 2 kts 180°
2026-05-06 18:39 50.47169 19.08045 983 ft 2 kts 180°
2026-05-06 18:39 50.47184 19.08045 983 ft 2 kts 180°
2026-05-06 18:39 50.47194 19.08045 983 ft 1 kts 180°
2026-05-06 18:40 50.47221 19.08029 983 ft 2 kts 138°
2026-05-06 18:40 50.47231 19.08011 983 ft 2 kts 118°
2026-05-06 18:40 50.47236 19.07989 983 ft 2 kts 98°
2026-05-06 18:40 50.47237 19.07977 983 ft 1 kts 86°
2026-05-06 18:41 50.47237 19.07971 983 ft 0 kts 89°
2026-05-06 18:41 50.47236 19.07971 983 ft 0 kts 89°
2026-05-06 18:43 50.47237 19.07973 983 ft 0 kts 89°
2026-05-06 18:43 50.47236 19.08019 983 ft 8 kts 92°
2026-05-06 18:43 50.47230 19.08147 983 ft 15 kts 90°
2026-05-06 18:44 50.47236 19.08349 985 ft 21 kts 89°
2026-05-06 18:44 50.47236 19.08624 986 ft 28 kts 90°
2026-05-06 18:44 50.47237 19.08965 991 ft 33 kts 89°
2026-05-06 18:44 50.47237 19.09362 996 ft 39 kts 90°
2026-05-06 18:45 50.47235 19.09800 1006 ft 38 kts 90°
2026-05-06 18:45 50.47313 19.10120 1012 ft 29 kts 53°
2026-05-06 18:45 50.47433 19.10377 1010 ft 23 kts 41°
2026-05-06 18:45 50.47480 19.10405 1010 ft 0 kts
2026-05-06 18:47 50.47486 19.10406 1009 ft 3 kts
2026-05-06 18:47 50.47555 19.10410 1008 ft 15 kts
2026-05-06 18:48 50.47599 19.10328 1007 ft 10 kts 271°
2026-05-06 18:48 50.47599 19.10305 1007 ft 0 kts 271°
2026-05-06 18:49 50.47601 19.10231 1005 ft 19 kts 271°
2026-05-06 18:49 50.47601 19.09724 993 ft 88 kts 270°
2026-05-06 18:50 50.47601 19.08323 984 ft 165 kts 271°
2026-05-06 18:50 50.47605 19.06375 1551 ft 190 kts 268°
2026-05-06 18:50 50.47633 19.04261 2433 ft 206 kts 269°
2026-05-06 18:50 50.47715 19.02006 3305 ft 217 kts 267°
2026-05-06 18:51 50.47711 18.99598 4125 ft 229 kts 263°
2026-05-06 18:51 50.47634 18.97021 4935 ft 240 kts 256°
2026-05-06 18:51 50.46960 18.94679 5709 ft 244 kts 223°
2026-05-06 18:51 50.45503 18.93342 6629 ft 249 kts 198°
2026-05-06 18:52 50.43845 18.92668 7609 ft 253 kts 195°
2026-05-06 18:52 50.42141 18.91887 8541 ft 259 kts 199°
2026-05-06 18:52 50.40464 18.90938 9406 ft 265 kts 201°
2026-05-06 18:52 50.38733 18.89874 10225 ft 272 kts 202°
2026-05-06 18:53 50.36930 18.88749 10830 ft 287 kts 202°
2026-05-06 18:53 50.35027 18.87572 11400 ft 302 kts 202°
2026-05-06 18:53 50.33024 18.86349 11917 ft 318 kts 202°
2026-05-06 18:53 50.30925 18.85073 12492 ft 330 kts 202°
2026-05-06 18:54 50.28756 18.83755 13294 ft 335 kts 202°
2026-05-06 18:54 50.26606 18.82447 14079 ft 339 kts 202°
2026-05-06 18:54 50.24406 18.81109 14893 ft 341 kts 202°
2026-05-06 18:54 50.22172 18.79753 15630 ft 346 kts 202°
2026-05-06 18:55 50.19926 18.78391 16377 ft 349 kts 202°
2026-05-06 18:55 50.17674 18.77028 17110 ft 352 kts 202°
2026-05-06 18:55 50.15394 18.75648 17769 ft 356 kts 202°
2026-05-06 18:55 50.13076 18.74247 18499 ft 359 kts 203°
2026-05-06 18:56 50.10717 18.72821 19160 ft 363 kts 203°
2026-05-06 18:56 50.08382 18.71416 19851 ft 365 kts 203°
2026-05-06 18:56 50.05997 18.69981 20418 ft 370 kts 203°
2026-05-06 18:56 50.03610 18.68547 21085 ft 372 kts 203°
2026-05-06 18:57 50.01186 18.67095 21709 ft 374 kts 203°
2026-05-06 18:57 49.98733 18.65627 22357 ft 376 kts 203°
2026-05-06 18:57 49.96320 18.64184 22917 ft 379 kts 203°
2026-05-06 18:57 49.93856 18.62710 23485 ft 382 kts 203°
2026-05-06 18:58 49.91345 18.61207 23769 ft 389 kts 204°
2026-05-06 18:58 49.88844 18.59714 23775 ft 384 kts 204°
2026-05-06 18:58 49.86328 18.58252 23772 ft 384 kts 202°
2026-05-06 18:58 49.83764 18.57043 23776 ft 386 kts 197°
2026-05-06 18:59 49.81164 18.56137 23771 ft 386 kts 194°
2026-05-06 18:59 49.78532 18.55375 23776 ft 388 kts 193°
2026-05-06 18:59 49.75838 18.54656 23775 ft 388 kts 193°
2026-05-06 18:59 49.73165 18.53954 23991 ft 396 kts 193°
2026-05-06 19:00 49.70480 18.53244 24795 ft 392 kts 193°
2026-05-06 19:00 49.67778 18.52516 25259 ft 397 kts 194°
2026-05-06 19:00 49.65057 18.51670 25762 ft 399 kts 196°
2026-05-06 19:00 49.62352 18.50706 26236 ft 402 kts 197°
2026-05-06 19:01 49.59635 18.49690 26735 ft 405 kts 197°
2026-05-06 19:01 49.56901 18.48663 27195 ft 408 kts 197°
2026-05-06 19:01 49.54105 18.47625 27631 ft 412 kts 197°
2026-05-06 19:01 49.51310 18.46601 28114 ft 414 kts 197°
2026-05-06 19:02 49.48481 18.45573 28540 ft 418 kts 197°
2026-05-06 19:02 49.45661 18.44557 29011 ft 420 kts 197°
2026-05-06 19:02 49.42779 18.43526 29422 ft 423 kts 197°
2026-05-06 19:02 49.39920 18.42508 29829 ft 426 kts 197°
2026-05-06 19:03 49.37028 18.41482 30215 ft 429 kts 197°
2026-05-06 19:03 49.34129 18.40457 30960 ft 424 kts 197°
2026-05-06 19:03 49.31266 18.39449 31636 ft 420 kts 197°
2026-05-06 19:03 49.28434 18.38450 31808 ft 426 kts 197°
2026-05-06 19:04 49.25537 18.37429 31826 ft 422 kts 197°
2026-05-06 19:04 49.19859 18.35437 31825 ft 420 kts 197°
2026-05-06 19:05 49.14136 18.33426 32132 ft 424 kts 197°
2026-05-06 19:05 49.11247 18.32414 32871 ft 419 kts 197°
2026-05-06 19:05 49.08450 18.31438 33591 ft 414 kts 197°
2026-05-06 19:05 49.05654 18.30464 34161 ft 412 kts 197°
2026-05-06 19:06 49.02855 18.29487 34645 ft 411 kts 197°
2026-05-06 19:06 49.00074 18.28517 35032 ft 411 kts 197°
2026-05-06 19:06 48.97326 18.27559 35436 ft 410 kts 197°
2026-05-06 19:06 48.94514 18.26580 35777 ft 411 kts 197°
2026-05-06 19:07 48.91743 18.25613 35817 ft 417 kts 197°
2026-05-06 19:07 48.85952 18.23593 35816 ft 431 kts 197°
2026-05-06 19:08 48.80050 18.21545 35812 ft 437 kts 196°
2026-05-06 19:08 48.74156 18.19517 35814 ft 435 kts 196°
2026-05-06 19:09 48.68224 18.17480 35818 ft 436 kts 196°
2026-05-06 19:09 48.62344 18.15462 35821 ft 436 kts 196°
2026-05-06 19:10 48.56387 18.13421 35822 ft 436 kts 196°
2026-05-06 19:10 48.50479 18.11403 35820 ft 436 kts 196°
2026-05-06 19:11 48.44584 18.09392 35824 ft 436 kts 196°
2026-05-06 19:11 48.38664 18.07377 35821 ft 436 kts 196°
2026-05-06 19:12 48.32738 18.05367 35814 ft 436 kts 196°
2026-05-06 19:12 48.26835 18.03368 35827 ft 437 kts 196°
2026-05-06 19:13 48.20869 18.01352 35829 ft 436 kts 196°
2026-05-06 19:13 48.14975 17.99362 35825 ft 436 kts 195°
2026-05-06 19:14 48.09064 17.97374 35827 ft 437 kts 195°
2026-05-06 19:14 48.03095 17.95372 35826 ft 436 kts 195°
2026-05-06 19:15 47.97183 17.93394 35828 ft 437 kts 195°
2026-05-06 19:15 47.91215 17.91399 35823 ft 438 kts 195°
2026-05-06 19:16 47.85268 17.89420 35831 ft 436 kts 195°
2026-05-06 19:16 47.79345 17.87451 35838 ft 438 kts 195°
2026-05-06 19:17 47.73446 17.85496 35840 ft 437 kts 195°
2026-05-06 19:17 47.67490 17.83526 35839 ft 435 kts 195°
2026-05-06 19:18 47.61586 17.81578 35852 ft 437 kts 195°
2026-05-06 19:18 47.55678 17.79631 35855 ft 437 kts 195°
2026-05-06 19:19 47.49718 17.77670 35857 ft 438 kts 195°
2026-05-06 19:19 47.43803 17.75730 35861 ft 439 kts 195°
2026-05-06 19:20 47.37819 17.73778 35868 ft 437 kts 195°
2026-05-06 19:20 47.31869 17.71836 35866 ft 438 kts 195°
2026-05-06 19:21 47.25956 17.69909 35872 ft 437 kts 195°
2026-05-06 19:21 47.20007 17.67970 35867 ft 438 kts 195°
2026-05-06 19:22 47.14068 17.66045 35865 ft 438 kts 195°
2026-05-06 19:22 47.08133 17.64128 35866 ft 438 kts 195°
2026-05-06 19:23 47.02168 17.62204 35875 ft 438 kts 195°
2026-05-06 19:23 46.96221 17.60293 35875 ft 440 kts 195°
2026-05-06 19:24 46.90206 17.58367 35871 ft 440 kts 195°
2026-05-06 19:24 46.84264 17.56467 35873 ft 440 kts 195°
2026-05-06 19:25 46.78269 17.54553 35867 ft 441 kts 195°
2026-05-06 19:25 46.72288 17.52648 35874 ft 440 kts 195°
2026-05-06 19:26 46.66303 17.50744 35877 ft 441 kts 195°
2026-05-06 19:26 46.60325 17.48847 35876 ft 441 kts 195°
2026-05-06 19:27 46.54316 17.46945 35881 ft 441 kts 195°
2026-05-06 19:27 46.48322 17.45050 35887 ft 443 kts 196°
2026-05-06 19:28 46.42277 17.43146 35887 ft 443 kts 195°
2026-05-06 19:28 46.36275 17.41261 35895 ft 444 kts 195°
2026-05-06 19:29 46.30226 17.39363 35897 ft 443 kts 196°
2026-05-06 19:29 46.24220 17.37483 35897 ft 444 kts 196°
2026-05-06 19:30 46.18183 17.35597 35895 ft 443 kts 196°
2026-05-06 19:30 46.12133 17.33710 35902 ft 445 kts 195°
2026-05-06 19:31 46.06086 17.31830 35903 ft 444 kts 195°
2026-05-06 19:31 45.97155 17.28344 35903 ft 441 kts 203°
2026-05-06 19:32 45.91482 17.25069 35902 ft 441 kts 206°
2026-05-06 19:32 45.85860 17.21584 35907 ft 439 kts 206°
2026-05-06 19:33 45.80270 17.18102 35911 ft 439 kts 207°
2026-05-06 19:33 45.74642 17.14732 35912 ft 440 kts 203°
2026-05-06 19:34 45.68743 17.12155 35915 ft 441 kts 199°
2026-05-06 19:34 45.62799 17.09996 35917 ft 442 kts 198°
2026-05-06 19:35 45.56823 17.07853 35917 ft 442 kts 198°
2026-05-06 19:35 45.50885 17.05681 35920 ft 441 kts 199°
2026-05-06 19:36 45.44940 17.03478 35922 ft 441 kts 199°
2026-05-06 19:36 45.38953 17.01255 35919 ft 442 kts 199°
2026-05-06 19:37 45.33048 16.99064 35918 ft 441 kts 199°
2026-05-06 19:37 45.27110 16.96861 35914 ft 441 kts 199°
2026-05-06 19:38 45.21233 16.94537 35925 ft 437 kts 203°
2026-05-06 19:38 45.15557 16.91544 35921 ft 433 kts 206°
2026-05-06 19:39 45.09928 16.88335 35936 ft 435 kts 206°
2026-05-06 19:39 45.04340 16.85179 35934 ft 434 kts 206°
2026-05-06 19:40 44.98698 16.82046 35941 ft 435 kts 206°
2026-05-06 19:40 44.92978 16.79234 35943 ft 438 kts 201°
2026-05-06 19:41 44.87096 16.77124 35950 ft 438 kts 199°
2026-05-06 19:41 44.81136 16.75145 35962 ft 439 kts 199°
2026-05-06 19:42 44.75204 16.73148 35960 ft 438 kts 199°
2026-05-06 19:42 44.69334 16.71139 35969 ft 436 kts 199°
2026-05-06 19:43 44.63416 16.69089 35979 ft 435 kts 199°
2026-05-06 19:43 44.57571 16.67064 35981 ft 436 kts 199°
2026-05-06 19:44 44.51688 16.65026 35984 ft 436 kts 199°
2026-05-06 19:44 44.45837 16.63007 35995 ft 433 kts 199°
2026-05-06 19:45 44.39977 16.60984 35991 ft 435 kts 199°
2026-05-06 19:45 44.34120 16.58969 35996 ft 433 kts 199°
2026-05-06 19:46 44.28276 16.56958 36005 ft 434 kts 199°
2026-05-06 19:46 44.22401 16.54936 36006 ft 433 kts 199°
2026-05-06 19:47 44.16587 16.52942 36008 ft 431 kts 199°
2026-05-06 19:47 44.10766 16.50954 36023 ft 429 kts 199°
2026-05-06 19:48 44.04992 16.48985 36026 ft 431 kts 199°
2026-05-06 19:48 43.99195 16.47018 36025 ft 429 kts 199°
2026-05-06 19:49 43.93367 16.45060 36019 ft 431 kts 199°
2026-05-06 19:49 43.87524 16.43097 36018 ft 431 kts 199°
2026-05-06 19:50 43.81672 16.41134 36017 ft 433 kts 199°
2026-05-06 19:50 43.75842 16.39185 36014 ft 432 kts 199°
2026-05-06 19:51 43.69996 16.37233 36006 ft 431 kts 199°
2026-05-06 19:51 43.64150 16.35294 36008 ft 432 kts 199°
2026-05-06 19:52 43.58321 16.33348 36000 ft 433 kts 198°
2026-05-06 19:52 43.52423 16.31381 35996 ft 435 kts 199°
2026-05-06 19:53 43.46566 16.29520 35991 ft 434 kts 197°
2026-05-06 19:53 43.40608 16.27943 35988 ft 436 kts 196°
2026-05-06 19:54 43.34663 16.26453 35989 ft 436 kts 196°
2026-05-06 19:54 43.28684 16.24932 35978 ft 438 kts 196°
2026-05-06 19:55 43.22683 16.23394 35976 ft 436 kts 196°
2026-05-06 19:55 43.16707 16.21857 35970 ft 435 kts 196°
2026-05-06 19:56 43.10768 16.20316 35962 ft 438 kts 196°
2026-05-06 19:56 43.04751 16.18752 35963 ft 437 kts 196°